Location: *
(49.4547°N, 7.9131°E)
Time: 23:00:58
(UTC+00:00)

USA 234 - Pass Details

Date: 22 September 2019
Orbit: 1103 x 1105 km, 123.0° (Epoch: 06 October)

Event Time Altitude Azimuth Distance (km) Brightness Sun altitude
Exits shadow 19:02:36 - 61° (ENE) 3,206 5.3 -16.0°
Reaches altitude 10° 19:03:14 10° 60° (ENE) 2,967 5.2 -16.1°
Maximum altitude 19:09:32 52° 346° (NNW) 1,347 3.9 -17.1°
Drops below altitude 10° 19:15:50 10° 273° (W) 2,964 6.6 -18.0°
Sets 19:18:22 0° 269° (W) 3,921 7.3 -18.4°
